Flag for Austria Weather past 2 weeks in Perg, Upper Austria, Austria

Now
50 °F

Sprinkles. Fog.


Feels Like: 47 °F
Forecast: 52 / 59 °F
Wind: 7 mph from Southwest

Location: Linz / Hoersching-Flughafen

Current Time: May 23, 2015 at 6:47:36 AM

Latest Report: May 23, 2015 at 5:50 AM


Visibility: 3 mi

Pressure: 30.07 "Hg

Humidity: 94%

Dew point: 48 °F

Location of PergLocation

Historic Weather in Perg — Graph

°F

Perg temperature yesterday

Maximum temperature yesterday: 61 °F (at 11:50 AM)
Minimum temperature yesterday: 48 °F (at 2:50 AM)
Average temperature yesterday: 53 °F

Past Weeks' High & Low Weather Summary

 TemperatureHumidityPressure
High77 °F (May 12, 4:20 PM)100% (May 10, 12:20 AM)30.39 "Hg (May 10, 12:20 AM)
Low45 °F (May 11, 4:20 AM)27% (May 11, 2:50 PM)29.71 "Hg (May 19, 3:50 AM)
Average58 °F75%30.07 "Hg
* Reported May 8 5:20 AM — May 23 5:20 AM, Perg, Weather by CustomWeather, © 2015

Note: Actual official high and low records may vary slightly from our data, if they occured in-between our weather recording intervals... More about our weather records

Advertising

Perg weather history for previous 24 hours

 ConditionsComfort  
Time TempWeatherWind HumidityBarometerVisibility
5:20 AM
Sat, May 23
50 °FLight rain. Fog.6 mph94%30.07 "Hg3 mi
4:50 AM50 °FFog.7 mph94%30.07 "Hg3 mi
4:20 AM50 °FFog.5 mph94%30.07 "Hg3 mi
3:50 AM50 °FPassing clouds.6 mph94%30.09 "Hg5 mi
3:20 AM50 °FSprinkles. Fog.5 mph94%30.09 "Hg3 mi
2:50 AM50 °FLight rain. Passing clouds.6 mph94%30.09 "Hg5 mi
2:20 AM50 °FLight rain. Passing clouds.7 mph94%30.09 "Hg5 mi
1:50 AM50 °FLight rain. Overcast.5 mph94%30.12 "Hg5 mi
1:20 AM50 °FPartly cloudy.6 mph94%30.12 "Hg5 mi
12:50 AM50 °FLight rain. Partly cloudy.5 mph100%30.15 "Hg4 mi
12:20 AM50 °FLight rain. Partly cloudy.5 mph94%30.15 "Hg4 mi
11:50 PM
Fri, May 22
50 °FPassing clouds.5 mph94%30.15 "Hg4 mi
10:50 PM52 °FPartly cloudy.8 mph94%30.15 "Hg5 mi
10:20 PM52 °FLight rain. Passing clouds.9 mph88%30.15 "Hg5 mi
9:50 PM52 °FDrizzle. Overcast.7 mph94%30.15 "HgN/A
9:20 PM52 °FLight rain. Broken clouds.6 mph94%30.15 "HgN/A
8:50 PM52 °FLight rain. Partly sunny.7 mph94%30.15 "HgN/A
8:20 PM54 °FPartly sunny.8 mph88%30.15 "HgN/A
7:50 PM54 °FPartly sunny.6 mph88%30.15 "HgN/A
7:20 PM54 °FBroken clouds.6 mph88%30.15 "HgN/A
6:50 PM54 °FBroken clouds.7 mph88%30.15 "HgN/A
6:20 PM54 °FBroken clouds.5 mph88%30.15 "HgN/A
5:50 PM55 °FBroken clouds.3 mph82%30.15 "HgN/A
5:20 PM55 °FBroken clouds.1 mph82%30.18 "HgN/A
4:50 PM55 °FLight rain. Broken clouds.5 mph82%30.18 "HgN/A
4:20 PM55 °FBroken clouds.3 mph82%30.18 "HgN/A
3:50 PM54 °FBroken clouds.3 mph88%30.18 "HgN/A
3:20 PM54 °FLight rain. Partly sunny.5 mph88%30.18 "HgN/A
2:50 PM57 °FLight rain. Broken clouds.5 mph63%30.18 "HgN/A
2:20 PM59 °FLight rain. Broken clouds.7 mph59%30.18 "HgN/A
1:50 PM59 °FBroken clouds.8 mph55%30.18 "HgN/A
1:20 PM59 °FBroken clouds.9 mph55%30.21 "HgN/A
12:50 PM59 °FBroken clouds.10 mph59%30.21 "HgN/A
12:20 PM59 °FPartly sunny.7 mph55%30.21 "HgN/A
11:50 AM61 °FPartly sunny.8 mph55%30.21 "HgN/A
11:20 AM59 °FBroken clouds.8 mph59%30.21 "HgN/A
10:50 AM59 °FBroken clouds.7 mph59%30.24 "HgN/A
10:20 AM55 °FPartly sunny.3 mph72%30.24 "HgN/A
9:50 AM55 °FPartly sunny.2 mph72%30.24 "HgN/A
9:20 AM54 °FPartly sunny.5 mph77%30.27 "HgN/A
8:50 AM52 °FPartly sunny.3 mph82%30.27 "Hg5 mi
8:20 AM52 °FPartly sunny.3 mph82%30.27 "Hg5 mi
7:50 AM52 °FPartly sunny.3 mph82%30.24 "Hg4 mi
7:20 AM50 °FPartly sunny.5 mph94%30.24 "Hg4 mi
6:50 AM50 °FFog.5 mph94%30.24 "Hg3 mi
6:20 AM50 °FFog.5 mph94%30.24 "Hg3 mi
Weather by CustomWeather, © 2015

See weather overviewHow to use our weather pages